Weather History for Hagerstown, MD

Change the Weather History Date:

Tuesday, February 5, 2013

  Actual Average Record
Temperature  
Mean Temperature 32 °F -  
Max Temperature 34 °F 39 °F 53 °F (2005)
Min Temperature 29 °F 24 °F 3 °F (2007)
Degree Days  
Heating Degree Days 33    
Month to date heating degree days 197  
Moisture  
Dew Point 29 °F    
Average Humidity 95    
Maximum Humidity 100    
Minimum Humidity 89    
Precipitation  
Precipitation T in - - ()
Month to date precipitation 0.05  
Year to date precipitation 3.03  
Sea Level Pressure  
Sea Level Pressure 29.89 in    
Wind  
Wind Speed 3 mph (NNW)    
Max Wind Speed 8 mph    
Max Gust Speed 10 mph    
Visibility 3 miles    
Events Snow    
Averages and records for this station are not official NWS values.
T = Trace of Precipitation, MM = Missing Value Source: NWS Daily Summary

Daily Weather History Graph

Daily Weather History Graph

Search for Another Location

Airport:

Trip Planner

Search our weather history database for the weather conditions in past years. The results will help you decide how hot, cold, wet, or windy it might be!

Date:

Astronomy

Feb. 05, 2013 Rise Set
Actual Time 7:14 AM EST 5:35 PM EST
Civil Twilight 6:46 AM EST 6:04 PM EST
Nautical Twilight 6:14 AM EST 6:36 PM EST
Astronomical Twilight 5:42 AM EST 7:07 PM EST
Moon 2:54 AM EST (2/5) 12:51 PM EST (2/5)
Length of Visible Light 11h 17m
Length of Day
10h 21m
Waning Crescent, 27% of the Moon is Illuminated
Feb 5
Waning Crescent
Feb 10
New
Feb 17
First Quarter
Feb 25
Full
Mar 4
Last Quarter

Hourly Weather History & Observations

Time (EST) Temp. Windchill Dew Point Humidity Pressure Visibility Wind Dir Wind Speed Gust Speed Precip Events Conditions
12:35 AM 28.4 °F 23.3 °F 28.4 °F 100% 29.86 in 5.0 mi North 4.6 mph - N/A   Overcast
12:53 AM 28.9 °F - 28.9 °F 100% 29.91 in 5.0 mi Calm Calm - N/A   Overcast
1:53 AM 30.0 °F - 28.0 °F 92% 29.90 in 6.0 mi Calm Calm - N/A   Overcast
2:53 AM 28.9 °F - 28.0 °F 96% 29.89 in 5.0 mi Calm Calm - N/A   Overcast
3:53 AM 30.0 °F 25.2 °F 28.0 °F 92% 29.89 in 5.0 mi NNW 4.6 mph - N/A   Overcast
4:53 AM 28.9 °F 22.8 °F 28.0 °F 96% 29.89 in 4.0 mi North 5.8 mph - N/A   Overcast
5:03 AM 28.4 °F 23.3 °F 28.4 °F 100% 29.84 in 4.0 mi North 4.6 mph - N/A   Overcast
5:39 AM 28.4 °F 21.2 °F 28.4 °F 100% 29.85 in 4.0 mi North 6.9 mph - N/A   Overcast
5:53 AM 28.9 °F 23.9 °F 28.0 °F 96% 29.91 in 4.0 mi NE 4.6 mph - N/A   Overcast
6:37 AM 28.4 °F 21.2 °F 28.4 °F 100% 29.87 in 4.0 mi NNW 6.9 mph - N/A   Overcast
6:53 AM 28.9 °F 23.9 °F 28.0 °F 96% 29.93 in 2.5 mi NNW 4.6 mph - N/A   Overcast
7:02 AM 28.4 °F 23.3 °F 28.4 °F 100% 29.87 in 2.5 mi NNE 4.6 mph - N/A   Overcast
7:33 AM 30.2 °F - 28.4 °F 93% 29.87 in 3.0 mi Calm Calm - N/A   Overcast
7:40 AM 30.2 °F - 28.4 °F 93% 29.88 in 2.0 mi Calm Calm - N/A   Overcast
7:49 AM 30.2 °F 26.7 °F 28.4 °F 93% 29.88 in 2.0 mi NNW 3.5 mph - N/A   Overcast
7:53 AM 30.0 °F 24.1 °F 28.9 °F 96% 29.94 in 2.0 mi NNW 5.8 mph - N/A   Overcast
8:05 AM 28.4 °F 22.2 °F 28.4 °F 100% 29.88 in 1.8 mi NNW 5.8 mph - N/A   Overcast
8:17 AM 30.2 °F 24.3 °F 28.4 °F 93% 29.89 in 1.8 mi NNW 5.8 mph - N/A   Overcast
8:24 AM 30.2 °F 24.3 °F 28.4 °F 93% 29.89 in 1.8 mi NW 5.8 mph - N/A   Overcast
8:28 AM 30.2 °F 24.3 °F 28.4 °F 93% 29.90 in 1.8 mi NNW 5.8 mph - N/A   Overcast
8:53 AM 30.0 °F 25.2 °F 28.9 °F 96% 29.95 in 1.8 mi NNW 4.6 mph - N/A   Overcast
9:06 AM 30.2 °F 25.4 °F 28.4 °F 93% 29.89 in 1.8 mi North 4.6 mph - N/A   Overcast
9:25 AM 30.2 °F 25.4 °F 28.4 °F 93% 29.89 in 2.0 mi North 4.6 mph - N/A   Overcast
10:37 AM 30.2 °F 26.7 °F 28.4 °F 93% 29.90 in 2.0 mi NNW 3.5 mph - N/A   Overcast
10:53 AM 30.9 °F - 28.9 °F 92% 29.96 in 2.5 mi Calm Calm - N/A   Overcast
11:40 AM 33.8 °F - 30.2 °F 87% 29.89 in 3.0 mi Calm Calm - N/A   Overcast
11:53 AM 34.0 °F - 30.0 °F 85% 29.94 in 2.0 mi Calm Calm - N/A   Overcast
12:00 PM 33.8 °F 30.8 °F 30.2 °F 87% 29.88 in 3.0 mi WNW 3.5 mph - N/A   Overcast
12:07 PM 32.0 °F 28.7 °F 30.2 °F 93% 29.87 in 2.5 mi WNW 3.5 mph - N/A   Overcast
12:53 PM 33.1 °F 27.7 °F 30.0 °F 89% 29.90 in 2.0 mi NW 5.8 mph - N/A   Overcast
1:53 PM 34.0 °F 31.0 °F 30.9 °F 89% 29.88 in 2.5 mi NNW 3.5 mph - N/A   Overcast
2:02 PM 33.8 °F 29.6 °F 30.2 °F 87% 29.84 in 3.0 mi NW 4.6 mph - N/A   Overcast
2:37 PM 33.8 °F 30.8 °F 30.2 °F 87% 29.83 in 2.0 mi NNW 3.5 mph - 0.00 in Snow Light Snow
2:50 PM 33.8 °F - 30.2 °F 87% 29.83 in 2.0 mi Calm Calm - 0.00 in Snow Light Snow
2:53 PM 33.1 °F 28.7 °F 30.9 °F 92% 29.88 in 2.0 mi North 4.6 mph - 0.00 in Snow Light Snow
3:04 PM 33.8 °F - 30.2 °F 87% 29.83 in 1.5 mi Calm Calm - 0.00 in Snow Light Snow
3:18 PM 33.8 °F 30.8 °F 30.2 °F 87% 29.84 in 1.5 mi North 3.5 mph - 0.00 in   Overcast
3:27 PM 33.8 °F - 30.2 °F 87% 29.84 in 1.8 mi Calm Calm - 0.00 in   Overcast
3:35 PM 33.8 °F - 30.2 °F 87% 29.84 in 1.2 mi Calm Calm - 0.00 in Snow Light Snow
3:53 PM 33.1 °F - 32.0 °F 96% 29.89 in 1.8 mi Calm Calm - 0.00 in   Overcast
4:04 PM 33.8 °F - 32.0 °F 93% 29.84 in 2.0 mi Calm Calm - N/A   Overcast
4:53 PM 33.1 °F 27.7 °F 30.9 °F 92% 29.90 in 2.0 mi NW 5.8 mph - N/A   Overcast
5:18 PM 33.8 °F - 30.2 °F 87% 29.84 in 1.8 mi Calm Calm - N/A   Overcast
5:25 PM 33.8 °F - 30.2 °F 87% 29.84 in 2.0 mi Calm Calm - N/A   Overcast
5:45 PM 33.8 °F - 30.2 °F 87% 29.84 in 2.5 mi Calm Calm - N/A   Mostly Cloudy
5:53 PM 32.0 °F - 30.9 °F 96% 29.89 in 3.0 mi Calm Calm - N/A   Mostly Cloudy
6:08 PM 32.0 °F - 30.2 °F 93% 29.84 in 3.0 mi Calm Calm - N/A   Mostly Cloudy
6:53 PM 32.0 °F - 30.0 °F 92% 29.91 in 3.0 mi Calm Calm - N/A   Overcast
7:18 PM 32.0 °F - 30.2 °F 93% 29.86 in 3.0 mi Calm Calm - N/A   Mostly Cloudy
7:33 PM 30.2 °F - 30.2 °F 100% 29.86 in 2.5 mi Calm Calm - N/A   Partly Cloudy
7:53 PM 30.9 °F - 30.0 °F 96% 29.92 in 2.5 mi Calm Calm - N/A   Clear
8:53 PM 30.9 °F - 30.0 °F 96% 29.94 in 2.5 mi Calm Calm - N/A   Mostly Cloudy
9:37 PM 32.0 °F - 30.2 °F 93% 29.90 in 3.0 mi Calm Calm - N/A   Mostly Cloudy
9:53 PM 30.9 °F - 30.0 °F 96% 29.96 in 3.0 mi Calm Calm - N/A   Mostly Cloudy
10:23 PM 30.2 °F - 30.2 °F 100% 29.92 in 2.5 mi Calm Calm - N/A   Mostly Cloudy
10:34 PM 30.2 °F 26.7 °F 30.2 °F 100% 29.92 in 3.0 mi NNE 3.5 mph - N/A   Partly Cloudy
10:53 PM 32.0 °F - 30.9 °F 96% 29.96 in 4.0 mi Calm Calm - N/A   Clear
11:33 PM 30.2 °F - 28.4 °F 93% 29.92 in 3.0 mi Calm Calm - N/A   Partly Cloudy
11:53 PM 28.9 °F - 28.9 °F 100% 29.97 in 3.0 mi Calm Calm - N/A   Scattered Clouds